KB1JDX Weather Reports


time (UTC)temp
C
wind
direction
speed
KPH
gust
KPH
rain 1hr
cm
rain 24hr
cm
rain mn
cm
humidity
%
barometer
mb
20260510224038 19 228 0.0 17.7 0.00 0.91 0.00 64 1012.1
20260510222038 20 216 0.0 17.7 0.00 1.09 0.00 64 1012.0
20260510221929 20 200 0.0 17.7 0.00 1.09 0.00 65 1012.0
20260510220038 20 220 11.3 17.7 0.00 1.09 0.00 64 1011.9
20260510214038 20 211 0.0 16.1 0.00 1.24 0.00 64 1011.7
20260510212037 20 213 0.0 16.1 0.00 1.40 0.00 64 1011.7
20260510211929 20 213 0.0 16.1 0.00 1.40 0.00 64 1011.5
20260510210038 20 224 0.0 16.1 0.00 1.40 0.00 64 1011.4
20260510202038 20 209 16.1 20.9 0.00 1.50 0.00 64 1011.3
20260510201929 20 215 0.0 20.9 0.00 1.50 0.00 64 1011.4
20260510200038 20 202 0.0 20.9 0.00 1.50 0.00 64 1011.3
20260510194038 20 191 0.0 19.3 0.00 1.52 0.00 64 1011.4
20260510192038 20 215 0.0 19.3 0.00 1.52 0.00 63 1011.6
20260510191929 20 216 11.3 19.3 0.00 1.52 0.00 64 1011.6
20260510190041 20 241 12.9 17.7 0.00 1.52 0.00 62 1011.8
20260510184039 20 180 0.0 17.7 0.00 1.52 0.00 60 1012.0
20260510182039 19 223 0.0 17.7 0.00 1.52 0.00 60 1012.1
20260510181929 19 190 0.0 17.7 0.00 1.52 0.00 59 1012.1
20260510180038 20 237 0.0 17.7 0.00 1.52 0.00 61 1011.9
20260510174040 20 207 0.0 19.3 0.00 1.52 0.00 60 1012.1
20260510172039 19 188 0.0 19.3 0.00 1.52 0.00 58 1012.5
20260510171929 19 185 0.0 19.3 0.00 1.52 0.00 58 1012.5
20260510170038 18 190 0.0 19.3 0.00 1.52 0.00 51 1012.6
20260510164038 18 180 0.0 14.5 0.00 1.52 0.00 51 1012.5
20260510162038 17 188 0.0 14.5 0.00 1.52 0.00 41 1012.6
20260510161929 17 187 0.0 14.5 0.00 1.52 0.00 42 1012.6
20260510160038 17 217 0.0 14.5 0.00 1.52 0.00 37 1012.9
20260510154039 16 205 0.0 0.0 0.00 1.52 0.00 30 1013.0
20260510152037 16 207 0.0 0.0 0.00 1.52 0.00 14 1012.9
20260510151929 15 206 0.0 0.0 0.00 1.52 0.00 13 1012.9
20260510150037 15 203 0.0 0.0 0.00 1.52 0.00 7 1013.0
20260510144038 14 196 0.0 9.7 0.00 1.52 0.00 100 1013.0
20260510142039 14 196 0.0 9.7 0.00 1.52 0.00 100 1013.2
20260510141929 14 196 0.0 9.7 0.00 1.52 0.00 100 1013.2
20260510140037 13 194 0.0 9.7 0.00 1.52 0.00 100 1013.2
20260510134037 13 224 0.0 0.0 0.00 1.52 0.00 100 1013.0
20260510132037 12 227 0.0 0.0 0.00 1.52 0.00 100 1013.1
20260510131929 12 227 0.0 0.0 0.00 1.52 0.00 100 1013.0
20260510130038 12 227 0.0 0.0 0.00 1.52 0.00 100 1013.1
20260510122037 11 225 0.0 12.9 0.00 1.52 0.00 100 1012.3
20260510121929 11 225 0.0 12.9 0.00 1.52 0.00 100 1012.2
20260510120037 11 225 0.0 0.0 0.00 1.52 0.00 100 1012.4
20260510114037 11 218 0.0 0.0 0.00 1.52 0.00 100 1012.4
20260510112037 11 205 0.0 0.0 0.00 1.52 0.00 100 1012.4
20260510111929 11 213 0.0 0.0 0.00 1.52 0.00 100 1012.5
20260510110038 11 173 0.0 0.0 0.00 1.52 0.00 100 1012.4
20260510104038 11 172 0.0 0.0 0.00 1.55 0.00 100 1012.6
20260510102037 11 173 0.0 0.0 0.00 1.60 0.00 100 1012.6
20260510101929 11 172 0.0 0.0 0.00 1.60 0.00 100 1012.6
20260510100037 11 172 0.0 0.0 0.00 1.60 0.00 100 1012.5
20260510094038 11 173 0.0 0.0 0.00 1.63 0.00 100 1012.5
20260510092037 11 173 0.0 0.0 0.00 1.63 0.00 100 1012.3
20260510091929 11 173 0.0 0.0 0.00 1.63 0.00 100 1012.3
20260510090037 11 173 0.0 0.0 0.00 1.63 0.00 100 1012.0
20260510084037 11 173 0.0 0.0 0.00 1.63 0.00 100 1011.7
20260510082037 11 173 0.0 0.0 0.00 1.63 0.00 100 1011.7
20260510081929 11 173 0.0 0.0 0.00 1.63 0.00 100 1011.7
20260510080038 11 173 0.0 0.0 0.00 1.63 0.00 100 1011.8
20260510074037 11 172 0.0 0.0 0.00 1.63 0.00 100 1011.9
20260510072037 11 172 0.0 0.0 0.00 1.63 0.00 100 1011.8
20260510071929 11 172 0.0 0.0 0.00 1.63 0.00 100 1011.8
20260510070039 11 172 0.0 0.0 0.00 1.63 0.00 100 1011.5
20260510064038 11 172 0.0 0.0 0.00 1.63 0.00 100 1011.5
20260510062037 11 172 0.0 0.0 0.00 1.63 0.00 100 1011.3
20260510061929 11 172 0.0 0.0 0.00 1.63 0.00 100 1011.3
20260510060037 11 172 0.0 0.0 0.00 1.63 0.00 100 1011.5
20260510054037 11 172 0.0 0.0 0.00 1.63 0.00 100 1011.6
20260510052037 11 172 0.0 0.0 0.00 1.63 0.00 100 1011.7
20260510051929 11 172 0.0 0.0 0.00 1.63 0.00 100 1011.6
20260510050037 11 172 0.0 0.0 0.00 1.63 0.00 100 1011.2
20260510044037 11 172 0.0 0.0 0.00 1.63 0.00 100 1011.2
20260510042037 11 172 0.0 0.0 0.00 1.63 0.00 100 1011.4
20260510041929 11 172 0.0 0.0 0.00 1.63 0.00 100 1011.5
20260510034038 11 172 0.0 0.0 0.00 1.63 1.63 100 1011.4
20260510032037 11 172 0.0 0.0 0.00 1.63 1.63 100 1011.2
20260510031929 11 172 0.0 0.0 0.00 1.63 1.63 100 1011.1
20260510030037 11 172 0.0 0.0 0.00 1.63 1.63 100 1011.3
20260510024037 11 172 0.0 0.0 0.18 1.63 1.63 100 1011.6
20260510022134 11 172 0.0 0.0 0.18 1.63 1.63 100 1011.6
20260510022038 11 172 0.0 0.0 0.18 1.63 1.63 100 1011.6
20260510021929 11 172 0.0 0.0 0.18 1.63 1.63 100 1011.6
20260510020037 11 172 0.0 0.0 0.25 1.45 1.45 100 1011.8
20260510014037 11 172 0.0 0.0 0.25 1.45 1.45 100 1011.9
20260510012037 11 184 0.0 0.0 0.25 1.45 1.45 100 1012.0
20260510011929 11 184 0.0 0.0 0.25 1.45 1.45 100 1012.0
20260510010037 11 187 0.0 0.0 0.25 1.45 1.45 100 1012.5
20260510004037 11 187 0.0 0.0 0.30 1.19 1.19 100 1012.9
20260510002037 11 185 0.0 0.0 0.30 1.19 1.19 100 1012.4
20260510001929 11 185 0.0 0.0 0.30 1.19 1.19 100 1012.5
20260509234037 12 198 0.0 0.0 0.36 0.89 0.89 100 1012.2
20260509232037 12 199 0.0 0.0 0.36 0.89 0.89 100 1012.2
20260509231929 12 204 0.0 0.0 0.36 0.89 0.89 100 1012.2
20260509230037 12 217 0.0 0.0 0.30 0.53 0.53 100 1012.1